TimeEST,TemperatureF,Dew PointF,Humidity,Sea Level PressureIn,VisibilityMPH,Wind Direction,Wind SpeedMPH,Gust SpeedMPH,PrecipitationIn,Events,Conditions,WindDirDegrees,DateUTC
12:52 AM,14.0,3.0,62,29.93,10.0,WNW,3.5,-,N/A,,Clear,300,2014-02-26 05:52:00
1:52 AM,10.9,3.0,70,29.92,10.0,WNW,3.5,-,N/A,,Mostly Cloudy,300,2014-02-26 06:52:00
2:52 AM,10.9,3.9,73,29.91,10.0,Calm,Calm,-,N/A,,Overcast,0,2014-02-26 07:52:00
3:52 AM,14.0,6.1,71,29.88,10.0,Calm,Calm,-,N/A,,Overcast,0,2014-02-26 08:52:00
4:52 AM,14.0,8.1,77,29.87,10.0,Calm,Calm,-,0.00,,Overcast,0,2014-02-26 09:52:00
5:52 AM,12.0,6.1,77,29.86,10.0,SE,5.8,-,N/A,,Partly Cloudy,130,2014-02-26 10:52:00
6:52 AM,12.0,5.0,73,29.85,10.0,East,5.8,-,N/A,,Clear,80,2014-02-26 11:52:00
7:52 AM,12.9,5.0,71,29.85,10.0,ESE,4.6,-,N/A,,Overcast,120,2014-02-26 12:52:00
8:40 AM,14.0,6.1,71,29.82,1.8,ESE,5.8,-,0.00,Snow,Light Snow,110,2014-02-26 13:40:00
8:45 AM,14.0,7.0,74,29.82,0.8,East,3.5,-,0.00,Snow,Light Snow,90,2014-02-26 13:45:00
8:52 AM,14.0,8.1,77,29.86,0.8,Calm,Calm,-,0.00,Snow,Light Snow,0,2014-02-26 13:52:00
8:59 AM,15.1,9.0,77,29.82,1.2,Calm,Calm,-,0.00,Snow,Light Snow,0,2014-02-26 13:59:00
9:13 AM,15.1,10.0,80,29.81,2.0,Calm,Calm,-,0.00,Snow,Light Snow,0,2014-02-26 14:13:00
9:23 AM,15.1,10.0,80,29.82,4.0,Calm,Calm,-,0.00,Snow,Light Snow,0,2014-02-26 14:23:00
9:31 AM,15.1,10.0,80,29.82,6.0,Calm,Calm,-,0.00,,Haze,0,2014-02-26 14:31:00
9:52 AM,18.0,9.0,68,29.86,10.0,WNW,6.9,-,0.00,,Overcast,290,2014-02-26 14:52:00
10:52 AM,21.0,1.0,42,29.84,10.0,West,13.8,29.9,N/A,,Mostly Cloudy,280,2014-02-26 15:52:00
11:52 AM,21.9,-2.9,34,29.84,10.0,West,12.7,26.5,N/A,,Overcast,280,2014-02-26 16:52:00
12:52 PM,19.9,-0.9,40,29.84,10.0,West,15.0,24.2,N/A,,Overcast,280,2014-02-26 17:52:00
1:52 PM,19.9,-9.0,27,29.83,10.0,WNW,18.4,31.1,N/A,,Partly Cloudy,290,2014-02-26 18:52:00
2:52 PM,19.0,-9.9,27,29.84,10.0,West,17.3,28.8,N/A,,Partly Cloudy,270,2014-02-26 19:52:00
3:52 PM,18.0,-9.0,30,29.86,10.0,West,13.8,23.0,N/A,,Scattered Clouds,260,2014-02-26 20:52:00
4:52 PM,16.0,-9.9,31,29.87,10.0,West,10.4,-,N/A,,Partly Cloudy,280,2014-02-26 21:52:00
5:52 PM,12.9,-11.9,32,29.88,10.0,WNW,9.2,-,N/A,,Clear,290,2014-02-26 22:52:00
6:52 PM,12.0,-11.9,34,29.89,10.0,WNW,6.9,-,N/A,,Clear,290,2014-02-26 23:52:00
7:52 PM,10.9,-9.9,39,29.88,10.0,West,10.4,-,N/A,,Clear,270,2014-02-27 00:52:00
8:52 PM,10.0,-11.0,38,29.87,10.0,West,8.1,-,N/A,,Clear,270,2014-02-27 01:52:00
9:52 PM,7.0,-8.0,51,29.88,10.0,Calm,Calm,-,N/A,,Clear,0,2014-02-27 02:52:00
10:52 PM,5.0,-8.0,55,29.86,10.0,Calm,Calm,-,N/A,,Clear,0,2014-02-27 03:52:00
11:52 PM,7.0,-2.9,64,29.87,10.0,Calm,Calm,-,N/A,,Mostly Cloudy,0,2014-02-27 04:52:00